Showing default

COSMOS 2584(GLONASS), 63130

Orbit data source: Space-Track

COSMOS 2584(GLONASS), 63130 is a Commonwealth of Independent States-origin payload satellite in MEO that was launched on Sun, 02 Mar 2025 UTC via a SOYUZ-2-1B launch vehicle from the Plesetsk Missile And Space Complex (PKMTR). Payload-class satellites include a variety of spacecraft equipped with specific instruments for various scientific and technological missions. These include communications satellites like Starlink; space stations such as the ISS; scientific satellites like the Hubble; Earth observation satellites from companies like Planet Labs, Umbra, and HawkEye 360; GPS; miniature CubeSats for education and research; and military/defense satellites.

Loading next visibility...
Identifier
63130, 2025-042A
Orbit
MEO
Last TLE update
1 day ago
Origin
Manufacturer
Resehetnev ISS
Mission
Awaiting activation Defense Navigation
Bus & Motor
EKSPRESS-1000, AOCS
Mass
974 kg wet, ~800 kg dry
Launch date (UTC)
2025-03-02 (2 months ago)
Launch vehicle
SOYUZ-2-1B
Launch site
Plesetsk Missile And Space Complex (PKMTR)
Object type
Payload
Rocket body
Debris
Shape & HBR
Box + 2 Pan, 5 m
Radar Cross Section
3.585 m², Large (>1 m²)

Expand to show TLE details & history

TLE from 1 day ago
0 COSMOS 2584(GLONASS)
1 63130U 25042A   25128.17117615  .00000005  00000-0  00000-0 0  9998
2 63130  64.8578  86.5946 0007101 235.5111 124.3962  2.13103756  1419
Epoch: 2025-05-08T04:06Z
Definitive object data (Epoch: 2025-05-08T04:06:29.619Z)
Latitude
0.00003°
Longitude
158.71127°
Altitude
19,140.56 km
Speed
3.952 km/s
True Right ascension
05h 46m 19s
True Declination
0° 00' 00"
Sunlit
Object was in daylight at TLE epoch
Visualization TLE readout
Latitude
47.97553°
Longitude
-52.6606°
Altitude
19,142.402 km
Speed
3.953 km/s
Apparent Right ascension
16h 04m 02s
Apparent Declination
50° 07' 01"
Sunlit
Object is in daylight
Visualization observer readout
Local Sidereal Time
14:41:26
Azimuth
48.008° ENE
Elevation
72.289°
Doppler factor
1
Orbital elements
Apogee altitude
19,147.48 km
Perigee altitude
19,111.254 km
Semi-major axis
25,507.504 km
Eccentricity
0.0007101
Inclination
64.8578°
RAAN
86.5946°
Arg. of periapsis
235.5111°
True anomaly
124.46331°
Mean anomaly
124.3962°
Eccentric anomaly
124.42976°
Mean motion
0.53277 °/min
BSTAR
Unknown
Orbital period
675.71 mins
Loading maneuver chart data...
Loading SW <> Apogee altitude chart data...
Loading historical data...
Loading historical data...
Loading historical data...
Loading historical data...
Loading historical data...
Loading historical data...
Loading historical data...
Other satellites on launch #42 in the year 2025 (2025-03-02 UTC)

COSMOS 2584(GLONASS) Visibility forecast

Observer location: undefined°, undefined°

Span
Click to sort rows by Start time (UTC) header in descending order
Start Az.
Max El. time (UTC)
Max El. Az.
Max El.
End time (UTC)
End Az.
151 mins2025-05-09 06:32:35.496Z48.085° ENE2025-05-09 06:38:35.496Z59.784° ENE43.657°2025-05-09 09:03:35.496Z159.981° S
329 mins2025-05-10 01:03:35.496Z242.621° WSW2025-05-10 04:25:35.496Z21.601° NNE40.418°2025-05-10 06:32:35.496Z119.816° SE
|